User: anonymous   Login
Location: Churchill Northern Studies Centre
(58.7378°N, 93.8201°W)
Time: 01:15:26
(UTC-05:00)
Language:

Tiangong 2 - Orbit

View from above orbital plane
View from above orbital plane
View from above satellite
View from above satellite

Ground track
Ground track

The orbit data is extracted from the following two-line orbital elements,

1 41765U 16057A   18203.52057870  .00003000  00000-0  42055-4 0  9993
2 41765  42.7842 130.2417 0005978 158.4823 174.9057 15.59085372105532
Epoch (UTC): 22 July 2018 12:29:38
Eccentricity: 0.0005978
inclination: 42.7842°
perigee height: 386 km
apogee height: 394 km
right ascension of ascending node: 130.2417°
argument of perigee: 158.4823°
revolutions per day: 15.59085372
mean anomaly at epoch: 174.9057°
orbit number at epoch: 10553

The dashed part of the orbit path shows where the satellite is in the earth's shadow,  

DLR